STARLINK-31961, 59894

Orbit data source: Space-Track

STARLINK-31961, 59894 is a payload satellite owned by SpaceX/Seattle (US) in LEO that was launched on Tue, 28 May 2024 UTC via an FALCON 9 launch vehicle from the Air Force Eastern Test Range (AFETR). Payload-class satellites include a variety of spacecraft equipped with specific instruments for various scientific and technological missions. These include communications satellites like Starlink; space stations such as the ISS; scientific satellites like the Hubble; Earth observation satellites from companies like Planet Labs, Umbra, and HawkEye 360; GPS; miniature CubeSats for education and research; and military/defense satellites.

Loading next visibility...
Identifier
59894, 2024-100K
Orbit
LEO
Country
Flag of USUS
Related business
Manufacturer
SpaceX/Seattle
Mission
Operational Commercial Communications
Bus & Motor
STARLINK V2M, Unknown motor
Mass
730 kg wet, ~700 kg dry
Launch date (UTC)
2024-05-28 (2 years ago)
Launch vehicle
FALCON 9
Launch site
Air Force Eastern Test Range (AFETR)
Object type
Payload
Rocket body
Debris
Shape & HBR
Box + 2 Pan, 17.7 m
Radar Cross Section
33.884 m², Large (>1 m²)

Expand to show TLE details & history
Last TLE update: 12 hours ago

TLE from 12 hours ago
0 STARLINK-31961
1 59894U 24100K   26126.13758358  .00000655  00000-0  33315-4 0  9994
2 59894  43.0021 153.9657 0001295 270.7644  89.3059 15.27578392110027
Epoch: 2026-05-06T03:18Z
TLE epoch observation values (Epoch: 2026-05-06T03:18:07.221Z)
Latitude
-0.00003°
Longitude
-119.56681°
Altitude
482.819 km
Speed
7.626 km/s
True Right ascension
10h 15m 51s
True Declination
0° 00' 00"
Sunlit
Object was in daylight at epoch
Visualization orbit readout
Latitude
Unknown
Longitude
Unknown
Altitude
Unknown
Speed
Unknown
Apparent Right ascension
Unknown
Apparent Declination
Unknown
Sunlit
N/A
Visualization observer readout
Local Sidereal Time
23:15:27
Azimuth
Unknown
Elevation
Unknown
Doppler factor
Unknown
Orbital elements
Apogee altitude
485.888 km
Perigee altitude
484.11 km
Semi-major axis
6,863.136 km
Eccentricity
0.00013
Inclination
43.0021°
RAAN
153.9657°
Arg. of periapsis
270.7644°
True anomaly
89.32074°
Mean anomaly
89.3059°
Eccentric anomaly
89.31332°
Mean motion
3.81733 °/min
Orbital period
94.31 mins
BSTAR
0.000033315
Loading maneuver chart data...
Computing Atmospheric mass density...
Loading historical data...
Loading historical data...
Loading historical data...
Loading historical data...
Loading historical data...
Loading historical data...
Loading historical data...

Documentation

Showing up to 5 results
|